{"data":{"norad_id":51993,"epoch":"2026-09-19T15:35:21.281568Z","epoch_age_seconds":129673,"freshness":"FRESH","line1":"1 51993U 22025AP  26262.64955187  .00000849  00000+0  35243-4 0  9992","line2":"2 51993  53.1589 239.3946 0001450  96.2912 263.8257 15.35394341250463","mean_motion":15.35394341,"eccentricity":0.000145,"inclination_deg":53.1589,"raan_deg":239.3946,"arg_perigee_deg":96.2912,"mean_anomaly_deg":263.8257,"bstar":3.5243e-5,"rev_number":25046,"period_min":93.786981073678,"perigee_km":458.7579507451,"apogee_km":460.74093781394,"semimajor_km":6837.8864442795,"source":"CELESTRAK","updated_at":"2026-09-20T09:00:39.981812Z"}}